Probability
10 8 7 6 4 3 5 8 10 10 8 6 6 5 5 6 7 9 10 9 9 7 6 6 6 6 7 7 6 6 5 4 4 4 4 4 3 3 3 3 3 3 3
10 8 7 7 7 6 6 9 11 11 9 8 8 7 6 7 8 8 8 8 7 7 7 8 8 8 9 8 8 7 5 4 5 5 5 4 3 4 3 3 3 3 4
8 8 8 8 9 9 9 10 12 13 13 12 10 8 8 8 9 9 8 6 5 6 7 8 10 10 11 11 11 10 7 6 6 6 4 3 3 4 4 3 3 4 5
8 8 9 9 11 11 11 12 13 14 15 14 11 9 8 8 8 9 8 6 4 4 6 7 10 11 12 12 13 13 11 9 7 6 4 3 4 5 5 4 3 4 5
9 9 9 9 9 10 10 11 12 13 14 13 11 9 7 6 7 8 8 6 4 3 4 7 9 12 13 14 14 15 15 13 11 8 6 6 6 7 6 5 4 4 5
9 9 8 7 7 8 10 11 12 13 13 11 10 9 8 7 8 9 8 6 5 4 4 6 9 11 13 14 15 16 16 15 13 12 10 10 10 9 8 6 6 6 6
11 11 8 6 7 8 10 11 12 13 12 11 10 10 10 10 10 11 10 8 6 6 6 7 8 10 12 14 15 16 16 15 14 14 13 13 12 11 10 9 7 6 6
11 11 10 9 8 9 11 14 14 13 13 12 11 11 12 12 12 12 12 10 8 8 8 9 9 9 11 13 15 16 15 15 15 15 14 13 12 12 12 11 9 7 6
11 11 12 12 11 11 14 16 16 15 14 14 12 12 11 12 12 13 13 12 10 10 11 11 10 9 9 12 15 15 15 15 15 15 15 13 12 12 12 12 11 8 7
14 14 15 15 14 15 16 16 16 16 15 14 12 11 10 10 11 12 12 12 12 12 12 12 10 9 8 10 14 14 13 14 16 15 15 14 13 13 13 12 11 10 9
20 18 16 16 17 17 18 16 14 14 14 14 12 11 10 10 10 9 9 10 11 12 13 11 9 7 7 9 12 13 13 14 16 15 15 15 14 13 12 11 10 9 9
20 18 16 17 18 19 18 16 13 11 11 12 12 11 10 10 9 7 6 7 8 9 11 10 7 5 6 7 10 11 12 13 15 16 15 15 14 12 10 10 9 9 8
17 16 15 16 18 18 17 14 11 9 9 11 12 12 13 13 10 6 4 4 5 6 7 7 5 5 5 6 7 8 9 11 13 15 15 14 12 11 9 9 10 9 9
14 14 14 16 16 16 15 13 10 9 11 12 12 13 15 15 12 8 6 5 5 6 6 5 4 4 4 5 5 5 5 6 9 11 11 10 9 9 7 8 10 10 10
13 13 15 18 18 17 15 12 10 10 13 14 13 14 16 16 14 11 9 9 9 8 7 6 5 4 3 3 3 3 2 3 5 6 6 5 5 6 5 5 7 9 10
16 16 18 22 22 20 16 12 10 10 13 15 15 14 15 15 14 13 12 13 13 12 10 9 8 7 4 2 1 2 1 2 3 2 2 2 3 4 4 3 4 5 7
18 18 19 23 23 20 16 12 10 9 12 14 14 14 14 13 12 12 14 15 15 14 12 10 10 9 6 3 1 1 1 2 3 3 2 2 2 3 3 3 3 4 4
16 16 17 19 21 18 15 13 12 11 12 11 12 15 15 13 10 11 13 15 14 12 10 10 10 10 7 4 1 1 2 4 5 5 4 3 3 3 3 4 5 7 7
15 16 16 17 17 16 14 13 13 13 11 10 12 15 17 14 11 11 13 13 12 10 9 9 10 9 7 4 1 1 4 6 7 7 6 4 4 3 2 5 8 9 9
15 17 17 17 15 13 13 13 12 10 9 10 12 15 17 15 14 14 14 13 12 11 10 10 10 8 7 5 2 2 5 6 7 7 6 4 3 1 1 5 9 9 8
15 16 16 15 14 13 14 13 9 8 8 9 11 13 15 14 14 15 15 14 13 13 12 12 11 10 8 6 2 2 4 6 6 6 6 5 3 1 0 3 8 8 7
15 15 15 14 13 14 15 13 9 9 10 11 11 13 13 13 13 13 14 13 12 11 12 12 12 11 10 7 4 2 2 3 5 6 6 5 3 1 0 2 4 5 5
15 15 15 14 13 13 13 12 11 13 13 12 12 13 14 13 12 11 10 9 8 8 8 9 9 10 9 8 6 2 0 1 3 4 4 3 1 1 1 1 3 3 4
13 14 15 14 13 11 11 13 14 15 15 12 12 13 13 13 11 8 7 6 5 5 5 7 7 8 8 8 6 4 3 2 2 3 4 4 3 3 3 4 6 7 7
11 13 15 15 13 10 11 13 15 15 15 13 11 11 11 10 8 6 5 4 3 3 4 5 6 6 6 5 4 5 4 3 3 4 6 8 7 7 7 8 10 11 11
9 13 16 15 12 10 11 13 15 16 14 12 11 10 8 7 6 5 4 4 3 3 2 4 5 5 4 2 2 2 3 2 2 4 8 10 10 9 8 9 11 13 13
Wind_Speed
4 4 3 4 4 3 3 3 3 3 2 1 1 1 0 0 1 1 2 1 1 1 1 2 1 1 1 1 2 1 1 1 1 2 2 2 3 2 2 2 1 1 2
5 4 4 4 4 4 3 4 3 3 2 1 1 1 0 0 1 1 2 2 1 1 0 1 1 1 1 1 2 2 2 1 1 2 2 2 4 3 2 2 2 1 1
5 6 5 4 4 4 4 3 3 3 2 1 1 1 1 1 1 1 1 2 2 1 2 1 2 2 1 1 1 2 2 2 0 2 3 2 1 0 3 2 1 1 1
5 6 6 5 4 4 4 4 3 2 2 2 1 1 0 0 1 1 1 1 1 1 1 1 1 2 1 1 2 1 2 3 2 1 1 3 3 3 1 3 2 2 2
5 5 5 5 4 4 4 4 3 2 2 2 2 2 1 0 0 0 1 0 1 1 1 1 1 1 1 2 2 2 3 2 2 2 1 1 1 3 3 2 1 2 2
6 6 5 5 4 5 4 4 4 3 3 2 1 1 1 1 1 1 0 1 0 0 1 1 1 1 1 1 1 1 1 2 2 3 2 2 2 2 2 3 3 2 1
6 6 6 5 5 5 4 4 4 3 3 2 2 1 1 1 1 1 0 1 1 0 1 1 1 1 1 1 1 0 1 1 2 2 2 2 2 2 3 3 3 4 2
6 6 6 5 5 5 5 4 4 3 3 2 2 1 1 1 0 1 2 1 1 1 1 1 1 1 2 2 1 1 1 1 1 1 2 2 2 3 3 3 4 4 3
6 6 6 5 5 5 4 4 4 3 2 2 2 2 1 0 1 1 1 1 2 1 1 1 1 1 1 2 2 1 1 1 2 2 2 3 2 2 3 3 4 5 5
5 5 5 5 4 5 5 4 4 3 3 2 2 2 1 1 0 1 1 2 2 2 1 1 1 1 1 1 2 1 1 2 2 2 2 3 3 2 3 3 3 4 5
5 4 4 4 4 5 5 5 4 3 3 2 2 1 1 1 0 0 1 1 1 2 1 1 1 2 2 2 2 2 2 3 2 2 2 3 3 3 3 3 3 3 4
5 5 4 4 4 4 4 4 3 3 3 2 2 2 2 1 0 0 0 1 1 1 1 1 1 1 1 2 2 3 3 3 3 3 3 3 3 3 4 3 4 3 4
5 5 4 4 4 4 3 3 3 3 2 3 3 2 2 1 1 1 1 0 0 1 1 1 1 2 2 2 2 3 3 3 4 4 4 4 4 4 4 4 4 4 4
5 5 4 4 3 3 3 3 3 3 3 3 3 2 2 1 1 1 1 1 1 0 0 1 1 1 1 2 3 3 3 3 3 3 4 4 4 5 5 5 4 5 5
4 4 4 3 3 3 3 3 3 2 2 2 2 2 1 1 1 1 1 1 1 1 1 1 2 2 2 2 3 4 3 3 3 3 3 3 3 4 4 5 4 4 5
4 4 4 4 3 3 2 2 3 2 2 1 1 1 1 1 1 1 1 1 1 1 1 2 2 2 2 4 4 5 4 3 3 3 3 3 3 3 4 4 5 5 6
5 4 4 3 3 3 3 2 2 2 2 2 1 1 1 0 0 1 1 1 1 1 1 2 2 2 2 3 3 4 4 3 3 3 4 4 2 2 3 4 6 6 7
4 4 3 3 2 2 3 2 2 3 2 2 1 1 1 0 0 0 0 1 1 1 1 2 2 2 2 2 2 4 4 3 3 3 3 4 4 3 4 5 5 5 5
3 3 2 2 2 2 2 3 2 2 2 2 1 0 0 0 0 0 1 1 1 1 1 1 1 2 1 1 2 5 4 3 3 3 3 4 4 4 5 6 6 6 6
3 2 2 2 2 2 3 3 3 2 2 1 1 1 1 0 1 1 1 1 1 1 1 1 1 2 2 1 2 5 4 3 3 2 2 1 2 4 4 5 6 7 6
3 3 3 2 2 2 3 3 3 2 2 1 1 1 1 1 1 0 0 1 1 1 1 1 1 1 2 1 1 3 4 4 4 3 3 1 1 3 5 6 6 6 8
3 3 3 2 2 2 3 2 2 1 1 2 2 1 1 1 0 0 1 1 1 1 1 1 1 1 0 1 1 0 3 6 4 4 4 3 2 4 5 5 5 7 8
3 3 2 2 2 2 3 2 2 2 2 2 2 2 1 1 1 1 1 1 2 2 1 2 1 1 1 1 1 1 2 4 4 3 4 4 4 5 4 4 6 6 5
3 2 2 2 2 2 2 3 2 2 3 3 2 2 2 1 1 1 1 1 2 2 2 2 2 2 2 2 2 1 1 3 3 3 3 5 6 5 4 4 4 3 3
2 2 2 2 1 2 2 3 3 3 3 3 2 2 2 1 1 1 1 1 2 2 3 3 3 3 3 4 6 6 5 5 4 5 4 3 3 3 3 3 3 3 3
2 2 2 2 1 1 2 2 3 3 3 2 2 1 1 1 1 1 0 2 1 1 0 3 4 3 3 3 4 5 5 6 7 6 4 4 4 4 4 4 4 4 3
Wind_Direction
130 127 131 129 129 130 131 134 136 134 157 167 207 182 111 47 51 57 45 29 9 13 341 345 23 322 352 329 310 285 203 229 251 247 219 188 185 190 201 208 218 200 198
138 135 141 143 139 134 137 146 157 154 178 173 209 222 304 339 63 41 54 26 18 355 17 357 321 346 338 322 314 298 294 259 249 282 266 222 173 183 187 199 202 230 214
160 155 156 155 150 148 151 149 156 160 183 190 197 181 174 206 143 90 76 36 18 29 6 355 328 341 317 351 304 296 292 295 276 310 304 295 312 196 164 192 197 221 232
166 163 161 161 161 158 149 142 143 154 167 188 206 215 260 348 19 2 65 74 35 15 16 339 331 313 322 352 306 336 299 288 279 214 290 319 342 300 228 181 171 199 219
166 162 160 157 160 154 149 145 145 142 150 187 193 225 248 275 3 68 90 358 64 19 357 354 344 322 327 353 349 354 317 293 292 289 255 247 249 274 282 272 247 208 195
165 162 156 152 156 154 155 152 149 151 151 163 167 204 287 311 346 5 358 245 169 88 35 344 338 316 331 347 333 332 340 327 324 306 302 287 278 274 275 274 270 268 217
163 159 156 158 159 159 159 156 150 155 159 165 173 189 222 221 241 291 316 294 316 15 32 347 324 330 321 307 302 285 323 316 302 293 293 294 298 307 297 290 289 285 257
161 160 160 165 168 168 168 161 157 162 168 172 176 192 227 238 250 332 323 324 331 5 357 310 305 317 312 298 287 278 263 293 279 286 297 289 293 295 293 292 294 286 271
159 160 162 167 169 165 162 162 157 163 174 179 175 178 187 291 338 306 283 319 333 339 346 321 297 291 297 300 285 299 305 307 286 278 262 273 283 287 294 288 286 288 290
154 153 159 163 161 155 148 153 154 159 164 164 164 139 144 149 217 288 356 345 340 346 332 314 304 292 287 281 276 268 280 272 276 287 301 289 292 291 283 283 282 283 289
150 144 148 149 148 148 146 148 149 153 152 138 138 136 141 145 140 350 341 340 345 349 339 332 318 311 318 311 297 296 282 272 275 276 274 276 290 295 294 286 281 278 279
146 141 136 134 137 137 135 134 142 142 140 139 140 143 143 149 158 86 324 352 5 359 5 352 327 300 300 295 288 291 298 292 287 288 292 291 285 281 283 287 282 282 280
147 143 135 129 128 126 123 128 135 131 145 148 155 150 153 160 192 251 263 298 322 352 4 6 345 335 322 298 286 284 286 285 285 286 286 290 291 284 283 277 280 280 273
161 150 141 134 121 120 128 139 137 136 145 156 162 160 167 182 204 209 227 240 247 260 296 308 315 325 326 319 303 295 286 283 282 282 282 287 287 285 284 276 274 277 280
163 146 139 127 129 122 133 145 140 137 142 157 152 154 162 176 203 209 222 234 247 244 264 281 290 299 287 315 309 296 288 287 287 285 284 287 292 301 291 294 296 287 278
161 151 141 137 136 137 147 145 139 140 143 138 126 132 156 187 194 212 216 213 242 289 284 282 293 299 324 20 350 309 302 295 294 297 296 284 266 276 258 273 286 288 279
162 155 148 144 143 143 147 152 140 139 143 151 146 159 184 181 206 237 193 200 218 245 271 288 295 308 356 19 354 324 306 302 303 299 299 302 327 307 291 262 251 256 257
169 163 162 152 145 139 137 146 145 148 151 152 143 157 174 163 154 243 252 224 229 249 273 300 311 312 355 25 340 311 287 289 291 295 298 300 310 328 316 296 290 278 264
178 169 168 161 149 144 143 151 148 136 140 129 128 132 152 147 175 238 262 267 260 265 274 289 304 305 337 351 310 297 289 280 290 295 306 306 308 356 327 295 294 292 286
160 162 158 152 152 166 154 161 156 143 142 135 139 133 158 194 242 269 272 278 266 267 274 299 303 310 320 342 304 295 286 298 300 292 287 13 332 348 319 291 292 291 294
153 155 162 161 167 171 169 182 169 162 157 145 146 151 167 214 218 213 280 277 277 296 306 309 308 319 327 345 337 318 307 312 305 305 303 14 78 309 299 288 289 296 298
161 160 159 162 161 165 177 184 175 159 155 158 164 178 207 226 149 177 242 262 278 255 269 278 288 302 319 357 45 257 289 305 302 306 318 358 355 295 285 281 289 291 286
173 170 159 169 173 175 177 190 180 171 170 171 172 183 207 215 201 228 242 243 249 268 289 295 305 327 343 58 153 206 255 276 289 316 340 319 289 274 260 246 261 270 277
186 174 174 196 191 193 191 184 170 175 180 177 179 181 193 200 177 252 261 286 300 304 307 312 318 325 330 341 347 318 270 241 259 287 276 244 248 257 283 276 256 268 301
193 185 192 205 198 204 198 175 161 176 182 179 184 191 193 174 198 250 324 307 348 345 313 318 318 321 329 360 354 330 325 325 337 316 287 287 294 297 306 308 312 309 304
202 200 201 207 199 208 184 167 168 181 187 190 195 209 205 175 222 209 148 38 2 86 311 311 309 342 354 332 328 326 322 317 311 297 291 302 306 307 312 314 312 307 308